www.pogodaiklimat.ru

Погода и климат >> Архив погоды >> Бангладеш >> Sandwip


ПОГОДА в Sandwip

  • Прогноз погоды в Sandwip
  • Монитор погоды в Sandwip
  • Климат города

АРХИВ ПОГОДЫ в Sandwip

Время (UTC), дата Ветер
(напр.,м/с)
 
Видим.   Явления Облачность Т
(С)
Тd
(С)
f
(%)
Тe
(С)
Тes
(С)
Комфортность P
(гПа)
Po
(гПа)
Тmin
(С)
Tmax
(С)
R
(мм)
R24
(мм)
S
(см)
06 8.08 Ю 2 7000 м 3/3 540 м
[Sc]
+31.8 +25.0 67 +45 +60 опасность
перегрева
1002.6 1002.3
09 8.08 Ю 2 7000 м 5/3 540 м
[Sc As trans]
+31.0 +26.0 75 +46 +54 опасность
перегрева
1001.3 1001.1
12 8.08 Ю 1 6000 м 5/1 540 м
[Sc As trans]
+29.8 +26.0 80 +45 +45 опасность
перегрева
1000.9 1000.7 +32.3
15 8.08 штиль 0 5000 м 4/4 540 м
[Sc]
+28.8 +26.0 85 +43 +43 опасность
перегрева
1003.4 1003.1
18 8.08 Ю 1 5000 м 4/4 540 м
[Sc]
+28.6 +27.0 91 +45 +45 опасность
перегрева
1004.0 1003.7
00 9.08 Ю 1 6000 м 9/4 540 м
[Sc As op]
+27.7 +27.0 96 +44 +44 опасность
перегрева
1003.7 1003.4
03 9.08 штиль 0 5000 м 9/4 540 м
[Sc As op]
+29.6 +27.0 86 +47 +50 опасность
перегрева
1005.0 1004.7 +26.4
06 9.08 Ю 1 6000 м 6/4 540 м
[Sc As op]
+32.0 +26.0 71 +48 +60 опасность
перегрева
1004.1 1003.8
09 9.08 Ю 1 7000 м 5/1 540 м
[Sc As trans]
+31.8 +27.0 76 +50 +59 опасность
перегрева
1002.4 1002.2
12 9.08 штиль 0 6000 м 6/3 540 м
[Sc As trans]
+30.5 +26.0 77 +46 +46 опасность
перегрева
1001.9 1001.7 +32.1
15 9.08 штиль 0 5000 м 4/4 540 м
[Sc]
+28.5 +26.0 86 +43 +43 опасность
перегрева
1003.6 1003.4
18 9.08 штиль 0 5000 м 4/4 540 м
[Sc]
+28.2 +26.0 88 +42 +42 опасность
перегрева
1003.9 1003.7
21 9.08 штиль 0 5000 м 4/4 540 м
[Sc]
+28.1 +26.0 88 +42 +42 опасность
перегрева
1003.3 1003.0
00 10.08 штиль 0 6000 м 4/4 540 м
[Sc]
+28.0 +27.0 94 +44 +44 опасность
перегрева
1002.9 1002.6
06 10.08 Ю 1 7000 м 5/3 540 м
[Sc As trans]
+31.8 +27.0 76 +50 +66 опасность
перегрева
1002.9 1002.7
09 10.08 Ю 1 7000 м 6/4 540 м
[Sc As trans]
+32.0 +27.0 75 +50 +57 опасность
перегрева
1000.6 1000.3
12 10.08 штиль 0 6000 м 6/4 540 м
[Sc As trans]
+30.5 +27.0 82 +48 +48 опасность
перегрева
1000.2 933.6 +32.4
15 10.08 штиль 0 5000 м 4/4 540 м
[Sc]
+29.2 +27.0 88 +46 +46 опасность
перегрева
1001.5 901.2
18 10.08 штиль 0 5000 м 6/4 540 м
[Sc As op]
+28.8 +27.0 90 +45 +45 опасность
перегрева
1002.0 1001.7
21 10.08 штиль 0 5000 м 5/4 540 м
[Sc As trans]
+28.4 +26.0 87 +43 +43 опасность
перегрева
1001.1 1017.6
00 11.08 штиль 0 6000 м 6/4 540 м
[Sc As trans]
+28.0 +27.0 94 +44 +44 опасность
перегрева
1000.6 1000.4
03 11.08 Ю 1 6000 м 8/4 540 м
[Sc As op]
+30.7 +28.0 86 +51 +55 опасность
перегрева
1002.0 1001.7 +27.0
06 11.08 Ю 1 6000 м 8/4 540 м
[Sc As op]
+31.4 +27.0 78 +49 +56 опасность
перегрева
1000.7 1000.5
09 11.08 Ю 1 6000 м 6/4 540 м
[Sc As trans]
+31.5 +28.0 82 +52 +59 опасность
перегрева
998.8 998.6
12 11.08 Ю 1 6000 м 8/4 540 м
[Sc As op]
+29.8 +27.0 85 +47 +47 опасность
перегрева
997.7 997.5 +31.6
15 11.08 штиль 0 5000 м 4/4 540 м
[Sc]
+29.0 +27.0 89 +46 +46 опасность
перегрева
999.8 999.6
18 11.08 Ю 1 4000 м слабый дождь 10/5 450 м
[Cb calv As op]
+28.1 +27.0 94 +44 +44 опасность
перегрева
1000.5 1000.3 14
21 11.08 штиль 0 4000 м слабый дождь 10/5 480 м
[Cb calv As op]
+26.4 +26.0 98 +39 +39 очень
душно
999.7 999.5
00 12.08 штиль 0 6000 м {дождь} 9/4 540 м
[Sc As op]
+27.0 +26.0 94 +40 +40 очень
душно
998.9 998.7 25
03 12.08 ЮВ 1 6000 м 8/4 540 м
[Sc As trans]
+29.1 +26.0 83 +44 +49 опасность
перегрева
999.5 999.3 +26.0
06 12.08 В 1 6000 м 8/4 540 м
[Sc As op]
+30.4 +25.0 73 +44 +51 опасность
перегрева
999.0 998.8
12 12.08 штиль 0 6000 м 6/4 540 м
[Sc As trans]
+30.0 +27.0 84 +47 +47 опасность
перегрева
996.7 996.5 +31.8
15 12.08 штиль 0 5000 м 5/4 540 м
[Sc As op]
+29.0 +26.0 84 +44 +44 опасность
перегрева
998.1 997.9
18 12.08 штиль 0 5000 м {дождь} 9/4 540 м
[Sc As op]
+28.0 +26.0 89 +42 +42 опасность
перегрева
999.9 999.7 1
21 12.08 штиль 0 4000 м 9/4 540 м
[Sc As op]
+27.8 +27.0 95 +44 +44 опасность
перегрева
998.7 998.5
00 13.08 штиль 0 6000 м 9/3 540 м
[Sc As op]
+27.6 +27.0 97 +43 +44 опасность
перегрева
997.5 997.2
03 13.08 Ю 1 6000 м 6/4 540 м
[Sc As trans]
+30.6 +27.0 81 +48 +55 опасность
перегрева
998.5 998.3 +26.8
06 14.08 Ю 1 6000 м 6/4 540 м
[Sc As trans]
+32.6 +26.0 68 +48 +61 опасность
перегрева
997.6 997.4
09 14.08 Ю 1 7000 м 5/4 540 м
[Sc As trans]
+33.0 +25.0 63 +47 +54 опасность
перегрева
996.5 996.3
12 14.08 штиль 0 6000 м в посл. час дождь 10/4 500 м
[Sc As op]
+29.8 +28.0 90 +49 +49 опасность
перегрева
995.7 995.4 +33.7
15 14.08 штиль 0 5000 м 10/4 500 м
[Sc As op]
+29.0 +26.0 84 +44 +44 опасность
перегрева
998.6 998.4
00 15.08 Ю 1 6000 м 6/3 540 м
[Sc As trans]
+28.2 +25.0 83 +41 +41 опасность
перегрева
999.7 999.5
03 15.08 ЮВ 2 6000 м 5/3 540 м
[Sc As trans]
+31.2 +25.0 70 +45 +52 опасность
перегрева
1001.3 1001.1 +27.5

 

Местоположение метеостанции Sandwip (Бангладеш): широта 22.48 долгота 91.43 высота над уровнем моря 6 м.

В архиве по умолчанию представлена погода в Sandwip за последнюю неделю. Архивные данные за месяц целиком и за предыдущие месяцы, начиная с января 2011 года, Вы можете получить, выбрав интересующий диапазон дат из раскрывающегося списка и нажав кнопку "Ввод!".


*Определитесь, кто Вы:
робот инопланетянин человек

Внимание! Время в таблицах - всемирное. Для получения местного времени необходимо прибавить поправку, которая в Sandwip равна 6.5 ч.

Смотрите также архив погоды в соседних городах и на ближайших метеорологических станциях:

Погода в Sitakundu (Бангладеш) (30 км)
Погода в Hatia (Бангладеш) (34 км)
Погода в Chittagong (Бангладеш) (46 км)
Погода в Maijdicourt (Бангладеш) (55 км)
Погода в Feni (Бангладеш) (61 км)
Погода в Rangamati (Бангладеш) (79 км)
Погода в Bhola (Бангладеш) (83 км)
Погода в Kutubdia (Бангладеш) (85 км)
Погода в Comilla (Бангладеш) (109 км)
Погода в Barisal (Бангладеш) (113 км)

Пояснения к столбцам:

Ветер - указаны скорость ветра в м/с - средняя за 10 мин, порывы в срок и между сроками (в фигурных скобках) и направление, откуда дует ветер: С - северный, СВ - северо-восточный, В - восточный, ЮВ - юго-восточный, Ю - южный, ЮЗ - юго-западный, З - западный, СЗ - северо-западный.
Видимость - горизонтальная дальность видимости в метрах или километрах. При видимости от 1 до 10 км при отсутствии осадков обычно наблюдается дымка, при ухудшении видимости до 1 км и менее - туман. В сухую погоду видимость может ухудшаться дымом, пылью или мглою.
Явления - указаны атмосферные явления, наблюдавшиеся в срок или в последний час перед сроком; фигурными скобками обозначены явления, наблюдавшиеся между сроками (за 1-3 часа до срока); квадратными скобками обозначены град или гололедные отложения с указанием их диаметра в мм.
Облачность - указаны через наклонную черту общая и нижняя облачность в баллах и высота нижней границы облаков в метрах; квадратными скобками обозначены формы облаков: Ci - перистые, Cs - перисто-слоистые, Cc - перисто-кучевые, Ac - высококучевые, As - высокослоистые, Sc - слоисто-кучевые, Ns - слоисто-дождевые, Cu - кучевые, Cb - кучево-дождевые. Подробнее классификацию облаков см. в Атласе облаков (PDF).
T - Температура воздуха - температура, измеренная на высоте 2 м над землей.
Td - Температура точки росы - температура, при понижении до которой содержащийся в воздухе водяной пар достигнет насыщения.
f - Относительная влажность воздуха - влажноcть воздуха, измеренная на высоте 2 м над землей.
Te - Эффективная температура - температура, которую ощущает одетый по сезону человек в тени. Характеристика душности погоды. При расчете учитывается влияние влажности воздуха и скорости ветра на теплоощущения человека.
Tes - Эффективная температура на солнце - температура, которую ощущает человек, с поправкой на солнечный нагрев. Характеристика знойности погоды. Зависит от высоты солнца над горизонтом, облачности и скорости ветра. Ночью, в пасмурную погоду, а также при ветре 12 м/с и более поправка равна нулю.
P - Атмосферное давление - приведенное к уровню моря атмосферное давление.
Po - Атмосферное давление - измеренное на уровне метеостанции атмосферное давление.
Tmin - Минимальная температура - минимум температуры воздуха на высоте 2 м над землей.
Tmax - Максимальная температура - максимум температуры воздуха на высоте 2 м над землей.
R - Количество осадков - Количество выпавших осадков за период времени, мм. При наведении курсора мыши на число - период времени, за который выпало указанное количество осадков.
R24 - Количество осадков - Количество выпавших осадков за 24 часа, мм.
S - Снежный покров - Высота снежного покрова, см. При наведении курсора мыши на число - состояние снежного покрова и степень покрытия местности в баллах.